Station MTKN6 - 8510560 - Montauk, NY Image indicating link to RSS feed of recent meteorological observations for station MTKN6


Conditions at MTKN6 as of
(4:00 am EDT)
0800 GMT on 06/14/2024:
     

Click on the graph icon in the table below to see a time series plot of the last five days of that observation.

5-day plot - Atmospheric Pressure Atmospheric Pressure (PRES):29.87 in
5-day plot - Pressure Tendency Pressure Tendency (PTDY):-0.04 in ( Falling )
5-day plot - Air Temperature Air Temperature (ATMP): 64.9 °F
5-day plot - Water Temperature Water Temperature (WTMP): 64.8 °F
NOS Water Level Observation Network Water Level
Previous observations
TIME
(EDT)
5-day plot - Wind Direction
WDIR
 
5-day plot - Wind Speed
WSPD
kts
5-day plot - Wind Gust
GST
kts
5-day plot - Wave Height
WVHT
ft
5-day plot - Dominant Wave Period
DPD
sec
5-day plot - Average Wave Period
APD
sec
5-day plot - Mean Wave Direction
MWD
 
5-day plot - Atmospheric Pressure
PRES
in
5-day plot - Pressure Tendency
PTDY
in
5-day plot - Air Temperature
ATMP
°F
5-day plot - Water Temperature
WTMP
°F
5-day plot - Dew Point
DEWP
°F
5-day plot - Salinity
SAL
psu
5-day plot - Visibility
VIS
nmi
5-day plot - Tide (above MLLW)
TIDE
ft
2024-06-14 03:54 am-------29.87- 64.9 64.8----
2024-06-14 03:48 am-------29.87- 64.9 64.8----
2024-06-14 03:42 am-------29.87- 65.1 64.8----
2024-06-14 03:36 am-------29.87- 65.3 64.8----
2024-06-14 03:30 am-------29.88- 65.3 64.9----
2024-06-14 03:24 am-------29.88- 65.3 64.9----
2024-06-14 03:18 am-------29.88- 64.9 64.9----
2024-06-14 03:12 am-------29.88- 65.1 64.9----
2024-06-14 03:06 am-------29.88- 64.9 64.9----
2024-06-14 03:00 am-------29.88-0.04 64.9 64.9----
2024-06-14 02:54 am-------29.88- 65.1 64.9----
2024-06-14 02:48 am-------29.88- 65.3 64.9----
2024-06-14 02:42 am-------29.89- 65.5 65.1----
2024-06-14 02:36 am-------29.88- 65.8 65.1----
2024-06-14 02:30 am-------29.88- 66.0 65.1----
2024-06-14 02:24 am-------29.89- 65.8 65.1----
2024-06-14 02:18 am-------29.88- 66.0 65.1----
2024-06-14 02:12 am-------29.88- 66.0 65.1----
2024-06-14 02:06 am-------29.88- 66.2 65.1----
2024-06-14 02:00 am-------29.89-0.05 66.0 65.3----
2024-06-14 01:54 am-------29.89- 65.8 65.3----
2024-06-14 01:48 am-------29.89- 66.0 65.3----
2024-06-14 01:42 am-------29.90- 65.8 65.5----
2024-06-14 01:36 am-------29.90- 66.0 65.5----
2024-06-14 01:30 am-------29.90- 66.0 65.5----
2024-06-14 01:24 am-------29.90- 65.7 65.7----
2024-06-14 01:18 am-------29.90-- 65.7----
2024-06-14 01:12 am-------29.91-- 65.7----
2024-06-14 01:06 am-------29.91-- 65.7----
2024-06-14 01:00 am-------29.91-0.03 65.8 65.7----
2024-06-14 12:54 am-------29.91- 65.5 65.8----
2024-06-14 12:48 am-------29.91- 65.5 65.8----
2024-06-14 12:42 am-------29.92- 65.5 66.0----
2024-06-14 12:36 am-------29.92- 65.3 66.2----
2024-06-14 12:30 am-------29.92- 65.5 66.2----
2024-06-14 12:24 am-------29.92- 65.1 66.2----
2024-06-14 12:18 am-------29.92- 65.3 66.2----
2024-06-14 12:12 am-------29.92- 65.7 66.2----
2024-06-14 12:06 am-------29.92- 66.0 66.2----
2024-06-14 12:00 am-------29.93-0.02 66.0 66.2----
2024-06-13 11:54 pm-------29.93- 66.0 66.2----
2024-06-13 11:48 pm-------29.93- 66.0 66.2----
2024-06-13 11:42 pm-------29.93- 65.8 66.2----
2024-06-13 11:36 pm-------29.93- 65.5 66.2----
2024-06-13 11:30 pm-------29.93- 65.3 66.2----
2024-06-13 11:24 pm-------29.93- 64.9 66.2----
2024-06-13 11:18 pm-------29.93- 64.6 66.2----
2024-06-13 11:12 pm-------29.93- 64.4 66.2----
2024-06-13 11:06 pm-------29.93- 64.4 66.2----
2024-06-13 11:00 pm-------29.93+0.00 64.6 66.4----
2024-06-13 10:54 pm-------29.93- 64.6 66.4----
2024-06-13 10:48 pm-------29.94- 64.9 66.4----
2024-06-13 10:42 pm-------29.94- 65.1 66.4----
2024-06-13 10:36 pm-------29.94- 65.3 66.4----
2024-06-13 10:30 pm-------29.94- 65.1 66.4----
2024-06-13 10:24 pm-------29.94- 65.3 66.4----
2024-06-13 10:18 pm-------29.94- 65.5 66.4----
2024-06-13 10:12 pm-------29.94- 65.7 66.4----
2024-06-13 10:06 pm-------29.94- 66.0 66.4----
2024-06-13 10:00 pm-------29.94+0.00 66.2 66.4----
2024-06-13 09:54 pm-------29.94- 65.8 66.6----
2024-06-13 09:48 pm-------29.94- 65.5 66.6----
2024-06-13 09:42 pm-------29.94- 65.7 66.6----
2024-06-13 09:36 pm-------29.94- 66.4 66.4----
2024-06-13 09:30 pm-------29.94- 67.1 66.4----
2024-06-13 09:24 pm-------29.94- 66.9 66.4----
2024-06-13 09:18 pm-------29.94- 67.1 66.4----
2024-06-13 09:12 pm-------29.95- 66.7 66.4----
2024-06-13 09:06 pm-------29.95- 66.7 66.4----
2024-06-13 09:00 pm-------29.95+0.01 66.9 66.4----
2024-06-13 08:54 pm-------29.95- 66.9 66.4----
2024-06-13 08:48 pm-------29.95- 66.7 66.4----
2024-06-13 08:42 pm-------29.95- 66.9 66.4----
2024-06-13 08:36 pm-------29.95- 67.1 66.6----
2024-06-13 08:30 pm-------29.94- 66.9 66.6----
2024-06-13 08:24 pm-------29.94- 66.7 66.6----
2024-06-13 08:18 pm-------29.94- 67.1 66.7----
2024-06-13 08:12 pm-------29.94- 67.5 66.7----
2024-06-13 08:06 pm-------29.94- 67.5 66.7----
2024-06-13 08:00 pm-------29.94+0.00 67.5 66.7----
2024-06-13 07:54 pm-------29.94- 67.6 66.6----
2024-06-13 07:48 pm-------29.94- 67.8 66.6----
2024-06-13 07:42 pm-------29.94- 68.0 66.6----
2024-06-13 07:36 pm-------29.94- 68.0 66.6----
2024-06-13 07:30 pm-------29.94- 67.8 66.6----
2024-06-13 07:24 pm-------29.94- 67.6 66.6----
2024-06-13 07:00 pm-------29.94-0.01- 66.6----
2024-06-13 06:54 pm-------29.94-- 66.7----
2024-06-13 06:48 pm-------29.94-------
2024-06-13 06:42 pm-------29.94-------
2024-06-13 06:36 pm-------29.94-------
2024-06-13 06:30 pm-------29.94- 68.2 66.7----
2024-06-13 06:24 pm-------29.94- 68.4 66.7----
2024-06-13 06:18 pm-------29.94- 68.7 66.7----
2024-06-13 06:12 pm-------29.94- 68.4 66.7----
2024-06-13 06:06 pm-------29.94- 68.5 66.7----
2024-06-13 06:00 pm-------29.94-0.02- 66.9----
2024-06-13 05:54 pm-------29.94-- 66.9----
2024-06-13 05:48 pm-------29.94- 69.1 66.9----
2024-06-13 05:42 pm-------29.94- 69.1 66.9----
2024-06-13 05:36 pm-------29.93- 69.3 66.9----
2024-06-13 05:30 pm-------29.93- 69.3 66.9----
2024-06-13 05:24 pm-------29.94- 69.4 66.9----
2024-06-13 05:18 pm-------29.94-- 66.9----
2024-06-13 05:12 pm-------29.94-- 66.9----
2024-06-13 05:06 pm-------29.94-- 66.9----
2024-06-13 05:00 pm-------29.94-0.02 70.0 66.7----
2024-06-13 04:54 pm-------29.94- 69.4 66.7----
2024-06-13 04:48 pm-------29.94- 70.2 66.7----
2024-06-13 04:42 pm-------29.94- 70.5 66.7----
2024-06-13 04:36 pm-------29.94- 70.3 66.7----
2024-06-13 04:30 pm-------29.94- 70.3 66.6----
2024-06-13 04:24 pm-------29.94- 70.2 66.6----
2024-06-13 04:18 pm-------29.95-- 66.6----
2024-06-13 04:12 pm-------29.95-- 66.6----
2024-06-13 04:06 pm-------29.95-- 66.6----
2024-06-13 04:00 pm-------29.95-0.02 70.2 66.4----
2024-06-13 03:54 pm-------29.95- 70.3 66.4----
2024-06-13 03:48 pm-------29.95- 70.3 66.4----
2024-06-13 03:42 pm-------29.96- 70.2 66.4----
2024-06-13 03:36 pm-------29.96- 69.8 66.4----
2024-06-13 03:30 pm-------29.96-- 66.4----
2024-06-13 03:24 pm-------29.96-- 66.4----
2024-06-13 03:18 pm-------29.96- 70.2 66.4----
2024-06-13 03:12 pm-------29.96- 70.0 66.4----
2024-06-13 03:06 pm-------29.96- 69.8 66.4----
2024-06-13 03:00 pm-------29.96- 69.4 66.4----
2024-06-13 02:54 pm-------29.96- 69.1 66.4----
2024-06-13 02:48 pm-------29.96-- 66.4----
2024-06-13 02:42 pm-------29.96-- 66.4----
2024-06-13 02:36 pm-------29.96-- 66.4----
2024-06-13 02:30 pm-------29.96-- 66.2----
2024-06-13 02:24 pm-------29.96-- 66.2----
2024-06-13 02:18 pm-------29.96- 70.5 66.2----
2024-06-13 02:12 pm-------29.96- 70.2 66.2----
2024-06-13 02:06 pm-------29.96- 69.6 66.2----
2024-06-13 02:00 pm-------29.96-0.02- 66.2----
2024-06-13 01:54 pm-------29.96-- 66.2----
2024-06-13 01:48 pm-------29.96-- 66.2----
2024-06-13 01:42 pm-------29.96-- 66.0----
2024-06-13 01:36 pm-------29.96-- 66.0----
2024-06-13 01:30 pm--------- 69.6 66.0----
2024-06-13 01:24 pm--------- 69.6 66.0----
2024-06-13 01:18 pm-------29.96- 70.0 66.0----
2024-06-13 01:12 pm-------29.97- 69.1 66.0----
2024-06-13 01:06 pm-------29.97- 69.4 66.0----
2024-06-13 01:00 pm-------29.97-0.01 68.5 66.0----
2024-06-13 12:54 pm-------29.97- 68.9 66.0----
2024-06-13 12:48 pm-------29.97- 69.3-----
2024-06-13 12:42 pm-------29.97- 69.3-----
2024-06-13 12:36 pm-------29.97- 69.4-----
2024-06-13 12:30 pm-------29.97- 69.4 66.0----
2024-06-13 12:24 pm-------29.97- 69.6 65.8----
2024-06-13 12:18 pm-------29.97-- 65.8----
2024-06-13 12:12 pm-------29.97-- 65.8----
2024-06-13 12:06 pm-------29.97-- 65.8----
2024-06-13 12:00 pm--------- 69.8 65.7----
2024-06-13 11:54 am--------- 70.0 65.7----
2024-06-13 11:48 am-------29.97-- 65.7----
2024-06-13 11:42 am-------29.97-- 65.7----
2024-06-13 11:36 am-------29.97-- 65.7----
2024-06-13 11:30 am-------29.97-- 65.7----
2024-06-13 11:24 am-------29.97-- 65.7----
2024-06-13 11:18 am-------29.97- 68.9 65.5----
2024-06-13 11:12 am-------29.98- 68.5 65.5----
2024-06-13 11:06 am-------29.98- 68.4 65.5----
2024-06-13 11:00 am-------29.98+0.00 68.0 65.5----
2024-06-13 10:54 am-------29.98- 67.5 65.5----
2024-06-13 10:48 am-------29.98- 67.1 65.3----
2024-06-13 10:42 am-------29.98- 67.8 65.3----
2024-06-13 10:36 am-------29.98- 66.7 65.3----
2024-06-13 10:30 am-------29.98-- 65.3----
2024-06-13 10:24 am-------29.98-- 65.3----
2024-06-13 10:18 am-------29.98- 67.1 65.3----
2024-06-13 10:12 am-------29.98- 66.7 65.1----
2024-06-13 10:06 am-------29.98- 66.9 65.1----
2024-06-13 10:00 am-------29.98+0.00 66.6 65.1----
2024-06-13 09:54 am-------29.98- 67.5 65.1----
2024-06-13 09:48 am-------29.98- 66.9 65.1----
2024-06-13 09:42 am-------29.98- 67.8 64.9----
2024-06-13 09:36 am-------29.98- 67.8 64.9----
2024-06-13 09:30 am-------29.98- 68.0 64.8----
2024-06-13 09:24 am-------29.98- 67.8 64.6----
2024-06-13 09:18 am-------29.98- 67.6 64.6----
2024-06-13 09:12 am-------29.98- 67.3 64.6----
2024-06-13 09:06 am-------29.98- 66.4 64.6----
2024-06-13 09:00 am-------29.98+0.00 66.6 64.6----
2024-06-13 08:54 am-------29.98- 66.2 64.6----
2024-06-13 08:48 am-------29.98- 66.7 64.6----
2024-06-13 08:42 am-------29.98- 66.4 64.6----
2024-06-13 08:36 am-------29.98- 66.2 64.6----
2024-06-13 08:30 am-------29.98- 65.7 64.6----
2024-06-13 08:24 am-------29.98- 64.8 64.6----
2024-06-13 08:18 am-------29.98- 64.8 64.6----
2024-06-13 08:12 am-------29.98- 66.0 64.6----
2024-06-13 08:06 am-------29.98- 67.5 64.4----
2024-06-13 08:00 am-------29.98+0.03 68.4 64.4----
2024-06-13 07:54 am-------29.98- 68.4 64.4----
2024-06-13 07:48 am-------29.98-- 64.4----
2024-06-13 07:42 am-------29.98-- 64.4----
2024-06-13 07:36 am-------29.98-- 64.4----
2024-06-13 07:30 am-------29.98- 69.4 64.4----
2024-06-13 07:24 am-------29.98- 68.5 64.4----
2024-06-13 07:18 am-------29.98- 66.0 64.4----
2024-06-13 07:12 am-------29.98- 66.2 64.4----
2024-06-13 07:06 am-------29.98- 65.1 64.6----
2024-06-13 07:00 am-------29.98+0.03 64.9 64.6----
2024-06-13 06:54 am-------29.98- 65.1 64.6----
2024-06-13 06:48 am-------29.98- 65.1 64.6----
2024-06-13 06:42 am-------29.98- 64.9 64.6----
2024-06-13 06:36 am-------29.98- 64.6 64.6----
2024-06-13 06:30 am-------29.98- 64.2 64.6----
2024-06-13 06:24 am-------29.98- 63.7 64.6----
2024-06-13 06:18 am-------29.98- 63.5 64.6----
2024-06-13 06:12 am-------29.98- 63.1 64.6----
2024-06-13 06:06 am-------29.98- 62.8 64.6----
2024-06-13 06:00 am-------29.98+0.02 62.8 64.6----
2024-06-13 05:54 am-------29.98- 63.0 64.6----
2024-06-13 05:48 am-------29.98- 63.1 64.6----
2024-06-13 05:42 am-------29.98- 63.0 64.8----
2024-06-13 05:36 am-------29.98- 62.8 64.8----
2024-06-13 05:30 am-------29.97- 62.2 64.8----
2024-06-13 05:24 am-------29.96- 62.1 64.8----
2024-06-13 05:18 am-------29.96- 61.7 64.9----
2024-06-13 05:12 am-------29.96- 62.1 64.9----
2024-06-13 05:06 am-------29.96- 62.4 64.9----
2024-06-13 05:00 am-------29.95+0.00 63.5 64.9----
2024-06-13 04:54 am-------29.95- 63.5 64.9----
2024-06-13 04:48 am-------29.96- 63.3 64.9----
2024-06-13 04:42 am-------29.95- 63.3 64.9----
2024-06-13 04:36 am-------29.95- 63.5 65.1----
2024-06-13 04:30 am-------29.95- 63.5 65.1----
2024-06-13 04:24 am-------29.95- 63.9 65.1----
2024-06-13 04:18 am-------29.95- 63.7 65.1----
2024-06-13 04:12 am-------29.95- 63.9 65.1----
2024-06-13 04:06 am-------29.95- 64.2 65.1----
2024-06-13 04:00 am-------29.95-0.01 64.2 64.9----
2024-06-13 03:54 am-------29.95- 64.2 64.9----